BAW2156 TAPA-EGKK

Flight info

Callsign BAW2156
Flight time N/A
Altitude 33000
Route DCT AMTTO DCT 19N060W 23N055W 27N051W 28N050W 35N045W/M085F350 40N040W 46N030W 4830N02000W DCT BEDRA DCT NASBA DCT GAPLI/N0487F350 DCT SIDDI DCT DAWLY DCT ELRIP DCT OTMET OTME1G
Aircraft B77W/H-SDE1E2E3FGHIJ2J3J4J5M1RWXYZ/LB1D1

Departure

Time 2026-05-08 15:59
Airport V. C. Bird International Airport (TAPA)

Arrival

Time N/A
Airport London Gatwick Airport (EGKK)
Time Latitude Longitude Altitude Speed Heading
2026-05-08 15:16 17.14106 -61.79018 55 ft 0 kts 339°
2026-05-08 15:40 17.14105 -61.79017 55 ft 0 kts 338°
2026-05-08 15:40 17.14101 -61.79016 55 ft 1 kts 338°
2026-05-08 15:40 17.14092 -61.79012 48 ft 1 kts 338°
2026-05-08 15:40 17.14083 -61.79008 47 ft 1 kts 327°
2026-05-08 15:41 17.14076 -61.79004 47 ft 1 kts 313°
2026-05-08 15:41 17.14071 -61.78998 47 ft 1 kts 299°
2026-05-08 15:41 17.14068 -61.78992 47 ft 1 kts 284°
2026-05-08 15:41 17.14066 -61.78988 47 ft 1 kts 256°
2026-05-08 15:42 17.14066 -61.78985 47 ft 0 kts 239°
2026-05-08 15:50 17.14064 -61.78987 47 ft 2 kts 233°
2026-05-08 15:50 17.14044 -61.79008 47 ft 5 kts 218°
2026-05-08 15:50 17.14014 -61.79031 47 ft 5 kts 223°
2026-05-08 15:50 17.13993 -61.79063 49 ft 5 kts 237°
2026-05-08 15:51 17.13978 -61.79086 52 ft 6 kts 236°
2026-05-08 15:51 17.13944 -61.79119 51 ft 7 kts 212°
2026-05-08 15:51 17.13900 -61.79143 52 ft 7 kts 213°
2026-05-08 15:51 17.13864 -61.79186 53 ft 10 kts 235°
2026-05-08 15:52 17.13820 -61.79262 53 ft 13 kts 239°
2026-05-08 15:52 17.13765 -61.79339 51 ft 13 kts 230°
2026-05-08 15:52 17.13713 -61.79417 52 ft 13 kts 238°
2026-05-08 15:52 17.13665 -61.79498 53 ft 13 kts 238°
2026-05-08 15:53 17.13616 -61.79579 56 ft 13 kts 238°
2026-05-08 15:53 17.13568 -61.79661 64 ft 13 kts 238°
2026-05-08 15:53 17.13520 -61.79742 58 ft 13 kts 238°
2026-05-08 15:53 17.13458 -61.79811 60 ft 13 kts 212°
2026-05-08 15:54 17.13373 -61.79847 56 ft 13 kts 200°
2026-05-08 15:54 17.13300 -61.79901 60 ft 13 kts 231°
2026-05-08 15:54 17.13249 -61.79980 57 ft 13 kts 238°
2026-05-08 15:54 17.13201 -61.80062 61 ft 13 kts 238°
2026-05-08 15:55 17.13153 -61.80142 68 ft 13 kts 238°
2026-05-08 15:55 17.13051 -61.80314 65 ft 14 kts 238°
2026-05-08 15:55 17.12999 -61.80400 67 ft 14 kts 238°
2026-05-08 15:56 17.12930 -61.80472 67 ft 14 kts 213°
2026-05-08 15:56 17.12873 -61.80526 74 ft 10 kts 238°
2026-05-08 15:56 17.12896 -61.80572 74 ft 9 kts 356°
2026-05-08 15:56 17.12931 -61.80523 66 ft 9 kts 68°
2026-05-08 15:57 17.12962 -61.80465 70 ft 8 kts 59°
2026-05-08 15:57 17.12973 -61.80445 65 ft 0 kts 59°
2026-05-08 15:58 17.12974 -61.80444 71 ft 0 kts 59°
2026-05-08 15:58 17.12975 -61.80441 71 ft 1 kts 59°
2026-05-08 15:58 17.12978 -61.80437 66 ft 1 kts 59°
2026-05-08 15:58 17.12995 -61.80407 66 ft 15 kts 58°
2026-05-08 15:59 17.13126 -61.80185 62 ft 68 kts 58°
2026-05-08 15:59 17.13517 -61.79533 56 ft 141 kts 58°
2026-05-08 15:59 17.14136 -61.78464 56 ft 197 kts 59°
2026-05-08 15:59 17.14809 -61.77280 873 ft 177 kts 64°
2026-05-08 16:00 17.15333 -61.76127 1673 ft 178 kts 62°
2026-05-08 16:00 17.16174 -61.75147 2119 ft 193 kts 34°
2026-05-08 16:00 17.17426 -61.74553 2626 ft 200 kts 25°
2026-05-08 16:00 17.18680 -61.73958 3203 ft 196 kts 36°
2026-05-08 16:01 17.19758 -61.73106 3808 ft 193 kts 43°
2026-05-08 16:01 17.20815 -61.72167 4157 ft 209 kts 43°
2026-05-08 16:01 17.21971 -61.71122 4422 ft 229 kts 43°
2026-05-08 16:01 17.23197 -61.70011 4940 ft 237 kts 43°
2026-05-08 16:02 17.24455 -61.68870 5554 ft 240 kts 43°
2026-05-08 16:02 17.25725 -61.67719 6208 ft 243 kts 43°
2026-05-08 16:02 17.27008 -61.66555 6785 ft 248 kts 42°
2026-05-08 16:02 17.28361 -61.65326 7172 ft 261 kts 42°
2026-05-08 16:03 17.29758 -61.64058 7750 ft 270 kts 41°